Location: Nitra
(0.0000°N, 18.0833°E)
Time: 07:46:46
(UTC+02:00)

Hubble Space Telescope - Pass Details

Date: 06 February 2023
Orbit: 527 x 530 km, 28.5° (Epoch: 27 March)

Event Time Altitude Azimuth Distance (km) Brightness Sun altitude
Rises 18:51:15 0° 250° (WSW) 2,647 6.5 -11.9°
Reaches altitude 10° 18:53:35 10° 257° (WSW) 1,756 4.9 -12.5°
Maximum altitude 18:57:28 44° 330° (NNW) 723 1.5 -13.4°
Enters shadow 19:00:13 17° 37° (NE) 1,345 2.3 -14.1°
